Weather History for KPWM - January, 2014

Change the Weather History Date:

Monday, January 13, 2014

  Actual Average Record
Temperature  
Mean Temperature 36 °F 22 °F  
Max Temperature 43 °F 31 °F 48 °F (1972)
Min Temperature 29 °F 13 °F -15 °F (1971)
Degree Days  
Heating Degree Days 29 43  
Month to date heating degree days 586 549  
Since 1 July heating degree days 3288 3161  
Cooling Degree Days 0 0  
Month to date cooling degree days 0 0  
Year to date cooling degree days 0 0  
Moisture  
Dew Point 28 °F    
Average Humidity 66    
Maximum Humidity 82    
Minimum Humidity 49    
Precipitation  
Precipitation 0.00 in 0.11 in 1.22 in (1979)
Month to date precipitation 2.63 1.44  
Year to date precipitation 2.63 1.44  
Snow  
Snow 0.00 in 0.70 in 8.20 in (1979)
Month to date snowfall 12.0 8.2  
Since 1 July snowfall 38.7 23.3  
Snow Depth 3.00 in    
Sea Level Pressure  
Sea Level Pressure 29.99 in    
Wind  
Wind Speed 8 mph (SW)    
Max Wind Speed 13 mph    
Max Gust Speed 18 mph    
Visibility 10 miles    
Events      
T = Trace of Precipitation, MM = Missing Value Source: NWS Daily Summary

Daily Weather History Graph

Daily Weather History Graph

Search for Another Location

Airport or City:

Trip Planner

Search our weather history database for the weather conditions in past years. The results will help you decide how hot, cold, wet, or windy it might be!

Date:

Astronomy

Jan. 13, 2014 Rise Set
Actual Time 7:12 AM EST 4:27 PM EST
Civil Twilight 6:40 AM EST 4:59 PM EST
Nautical Twilight 6:05 AM EST 5:35 PM EST
Astronomical Twilight 5:30 AM EST 6:09 PM EST
Moon 2:40 PM EST (1/13) 4:58 AM EST (1/13)
Length of Visible Light 10h 19m
Length of Day
9h 15m
Waxing Gibbous, 95% of the Moon is Illuminated
Jan 13
Waxing Gibbous
Jan 15
Full
Jan 24
Last Quarter
Jan 30
New
Feb 6
First Quarter

Hourly Weather History & Observations

Time (EST) Temp. Windchill Dew Point Humidity Pressure Visibility Wind Dir Wind Speed Gust Speed Precip Events Conditions
12:51 AM 36.0 °F 30.3 °F 23.0 °F 59% 29.90 in 10.0 mi West 6.9 mph - N/A   Clear
1:51 AM 36.0 °F 29.0 °F 24.1 °F 62% 29.94 in 10.0 mi West 9.2 mph - N/A   Clear
2:51 AM 36.0 °F 28.0 °F 24.1 °F 62% 29.98 in 10.0 mi West 11.5 mph - N/A   Clear
3:51 AM 34.0 °F 26.6 °F 23.0 °F 64% 30.00 in 10.0 mi West 9.2 mph - N/A   Clear
4:51 AM 30.0 °F 24.1 °F 23.0 °F 75% 30.01 in 10.0 mi WNW 5.8 mph - N/A   Clear
5:51 AM 33.1 °F - 24.1 °F 70% 30.04 in 10.0 mi Calm Calm - N/A   Clear
6:51 AM 30.9 °F - 23.0 °F 72% 30.05 in 10.0 mi Calm Calm - N/A   Clear
7:51 AM 33.1 °F 27.7 °F 23.0 °F 66% 30.08 in 10.0 mi SW 5.8 mph - N/A   Clear
8:51 AM 35.1 °F 30.1 °F 24.1 °F 64% 30.08 in 10.0 mi SSW 5.8 mph - N/A   Clear
9:51 AM 37.0 °F 30.4 °F 25.0 °F 62% 30.07 in 10.0 mi SSW 9.2 mph - N/A   Clear
10:51 AM 39.9 °F 33.9 °F 25.0 °F 55% 30.07 in 10.0 mi SW 9.2 mph - N/A   Clear
11:51 AM 42.1 °F 35.7 °F 24.1 °F 49% 30.04 in 10.0 mi SSW 11.5 mph - N/A   Clear
12:51 PM 42.1 °F 36.6 °F 27.0 °F 55% 30.01 in 10.0 mi SSW 9.2 mph - N/A   Clear
1:51 PM 39.9 °F 33.9 °F 28.0 °F 63% 30.01 in 10.0 mi SSW 9.2 mph - N/A   Clear
2:51 PM 39.0 °F 32.8 °F 28.9 °F 67% 30.00 in 10.0 mi SSW 9.2 mph - N/A   Clear
3:51 PM 39.9 °F 32.5 °F 32.0 °F 73% 29.98 in 10.0 mi South 12.7 mph - N/A   Clear
4:51 PM 39.9 °F 34.5 °F 32.0 °F 73% 29.99 in 10.0 mi South 8.1 mph - N/A   Clear
5:51 PM 39.9 °F 34.5 °F 33.1 °F 77% 29.98 in 10.0 mi South 8.1 mph - N/A   Clear
6:51 PM 42.1 °F 35.7 °F 33.1 °F 70% 29.99 in 10.0 mi South 11.5 mph - N/A   Clear
7:51 PM 41.0 °F 35.2 °F 32.0 °F 70% 29.97 in 10.0 mi SSW 9.2 mph - N/A   Clear
8:51 PM 42.1 °F 36.1 °F 32.0 °F 67% 29.94 in 10.0 mi South 10.4 mph - N/A   Clear
9:51 PM 41.0 °F 35.8 °F 36.0 °F 82% 29.94 in 10.0 mi SSW 8.1 mph - N/A   Clear
10:51 PM 42.1 °F 36.1 °F 37.9 °F 85% 29.91 in 10.0 mi South 10.4 mph - N/A   Clear
11:51 PM 42.1 °F 36.6 °F 39.0 °F 89% 29.89 in 10.0 mi South 9.2 mph - N/A   Clear